Regional Weather Roundup
Issued by NWS

Home | Current Version | Previous Version | Graphics & Text | Print | Product List | Glossary On
Versions: 1 2 3 4 5 6 7 8 9 10 11 12 13 14 15 16 17 18 19 20 21 22 23 24 25 26 27 28 29 30 31 32 33 34 35 36 37 38 39 40 41 42 43 44 45 46 47 48 49 50
138
ASUS43 KMKX 141610
RWRWI

WISCONSIN REGIONAL WEATHER ROUNDUP
NATIONAL WEATHER SERVICE MILWAUKEE/SULLIVAN WI
1000 AM CST SUN FEB 14 2016

NOTE: "FAIR" INDICATES FEW OR NO CLOUDS BELOW 12,000 FEET WITH NO
SIGNIFICANT WEATHER AND/OR OBSTRUCTIONS TO VISIBILITY.

WIZ001-002-006>008-014>016-023>028-141700-
NORTHWEST WISCONSIN

CITY           SKY/WX    TMP DP  RH WIND       PRES   REMARKS
SUPERIOR ARPT  CLOUDY     9  -6  48 CALM      30.10F
ASHLAND        CLOUDY     0 -11  59 CALM      30.13F
HAYWARD        CLOUDY     7  -8  50 SE12      30.08F WCI  -8
SIREN          LGT SNOW  10   2  69 SE7G21    30.06F WCI  -1
CUMBERLAND     LGT SNOW   9   0  66 SE9       30.06F WCI  -5
RICE LAKE      LGT SNOW   9  -1  63 SE12G17   30.10S WCI  -5
CHETEK         FLURRIES   9  -2  61 SE10      30.10S WCI  -6
LADYSMITH      CLOUDY     8  -6  50 SE12      30.13F WCI  -7
EAU CLAIRE     LGT SNOW   9  -1  64 SE10      30.11F WCI  -5
MENOMONIE      FLURRIES  12   1  59 E12       30.10F WCI  -2
NEW RICHMOND   CLOUDY    11   1  64 SE10      30.06F WCI  -2
OSCEOLA        CLOUDY    12   3  66 SE8       30.09F WCI   1
$$

WIZ003>005-009-010-017-018-141700-
NORTH CENTRAL WISCONSIN

CITY           SKY/WX    TMP DP  RH WIND       PRES   REMARKS
MANITOWISH WTR CLOUDY     4 -12  48 SE14      30.09F WCI -13
ARBOR VITAE    CLOUDY     5 -10  50 SE9       30.10F WCI  -9
WOODRUFF       CLOUDY     5 -10  50 SE9       30.10F WCI  -9
RHINELANDER    CLOUDY     4  -9  55 SE6       30.12F WCI  -7
EAGLE RIVER    CLOUDY     7 -11  45 S9        30.12S WCI  -7
LAND O LAKES   CLOUDY     8 -10  44 S8        30.11F WCI  -5
PHILLIPS       CLOUDY     5 -10  50 SE7       30.09F WCI  -7
TOMAHAWK       CLOUDY     7 -10  46 S7        30.13F WCI  -5
MEDFORD        CLOUDY     6  -7  54 SE10      30.12S WCI  -9
MERRILL        CLOUDY   N/A N/A N/A SE3       30.17S
$$

WIZ029-030-035-036-043>047-141700-
CENTRAL WISCONSIN

CITY           SKY/WX    TMP DP  RH WIND       PRES   REMARKS
WAUSAU         CLOUDY     8  -6  52 S12       30.17S WCI  -7
MOSINEE        SUNNY      9  -6  52 SE12      30.18S WCI  -6
MARSHFIELD     CLOUDY     9  -6  50 SE9       30.14S WCI  -4
STEVENS POINT  CLOUDY     7  -8  51 SE10G16   30.20R WCI  -8
WAUPACA        CLOUDY     9  -5  54 CALM      30.23F
WAUTOMA        CLOUDY    12  -6  44 SE8       30.22F WCI   0
WISC RAPIDS    CLOUDY    11  -6  46 S9        30.20S WCI  -2
CAMP DOUGLAS   LGT SNOW  10   5  79 E10       30.16F FOG     WCI  -3
$$

WIZ011>013-019>022-031-037>040-048>050-141700-
NORTHEAST WISCONSIN

CITY           SKY/WX    TMP DP  RH WIND       PRES   REMARKS
ANTIGO         CLOUDY     4  -6  63 SE12      30.16F WCI -12
SHAWANO        MOSUNNY    4  -5  66 CALM      30.25F
OCONTO         CLOUDY     8  -4  58 CALM      30.26F
STURGEON BAY   CLOUDY    10   0  61 CALM      30.28F
GREEN BAY      CLOUDY    12   1  61 CALM      30.25F
MANITOWOC      FLURRIES  15   6  67 SW7       30.26F WCI   5
APPLETON       PTSUNNY   14   1  57 SE9       30.21F WCI   2
CLINTONVILLE   CLOUDY     7  -6  56 CALM      30.23F
OSHKOSH        CLOUDY    12   1  61 S8        30.23F WCI   0
$$

WIZ032>034-041-042-053>061-141700-
SOUTHWEST WISCONSIN

CITY           SKY/WX    TMP DP  RH WIND       PRES   REMARKS
LA CROSSE      LGT SNOW  14   5  67 SE13      30.14F WCI   0
SPARTA         FLURRIES  13   5  70 E7        30.16S WCI   3
VIROQUA        CLOUDY    12   6  79 SE13      30.10S WCI  -3
BOSCOBEL       LGT SNOW  16   9  74 SE9       30.18S VSB 3/4 WCI   4
PRAIRIE DU CHI LGT SNOW  16  10  79 E13       30.14F VSB 3/4 WCI   2
PLATTEVILLE    CLOUDY    15  12  88 SE15      30.14F VSB 1/4 WCI  -1
$$

WIZ056-057-062-063-064-067-068-141700-
SOUTH CENTRAL WISCONSIN

CITY           SKY/WX    TMP DP  RH WIND       PRES   REMARKS
REEDSBURG      LGT SNOW  13   3  66 SE7       30.17F WCI   2
BARABOO/DELLS  FLURRIES  13   2  62 SE9       30.18F WCI   0
LONE ROCK      LGT SNOW  15   6  67 SE15G22   30.18F WCI   0
MINERAL POINT  LGT SNOW  18  10  73 SE13G23   30.13F WCI   4
MADISON        FLURRIES  15   1  53 SE20      30.21R WCI  -2
MIDDLETON      CLOUDY    17   5  58 SE14      30.20S WCI   3
WATERTOWN      CLOUDY    16   4  59 SE14G20   30.23R WCI   2
MONROE         FLURRIES  16   7  67 SE15G24   30.17S WCI   1
JANESVILLE     CLOUDY    18   3  53 SE15      30.21F WCI   3
$$

WIZ051-052-058>065-066-070>072-141700-
SOUTHEAST WISCONSIN

CITY           SKY/WX    TMP DP  RH WIND       PRES   REMARKS
MILWAUKEE      FLURRIES  19  11  70 S16G23    30.27F WCI   4
WAUKESHA       LGT SNOW  16   9  73 SE14G21   30.25F WCI   1
MILWAUKEE/TIMM FLURRIES  18   9  68 S10       30.26F WCI   6
RACINE         CLOUDY    19   9  65 S20G28    30.29S WCI   3
BURLINGTON     CLOUDY    16   4  59 SE20      30.25R WCI  -1
KENOSHA        CLOUDY    18   8  65 SE17G25   30.27R WCI   3
FOND DU LAC    MIX PCPN  15   4  61 S15       30.23F WCI   0
SHEBOYGAN      CLOUDY    14   7  73 S6        30.24F WCI   5
WEST BEND      FLURRIES  18   7  62 S3        30.24R
JUNEAU         CLOUDY    15   4  62 SE17G24   30.24R WCI  -1
$$

LSZ147-162-141700-
LAKE SUPERIOR

STATION/POSITION TIME  TEMP    WIND        PRES    WAVE
                       AIR SEA DIR/SP/G            HT/PER
                 (UTC) (F)     (DEG/KT/KT) (MB)    (FT/S)
DEVILS ISLAND    1600   10     170/  9/ 15 1022.1F
SAXON HARBOR     1500                      1020.3F
$$

LMZ867-665-643>646-141700-
LAKE MICHIGAN

STATION/POSITION TIME  TEMP    WIND        PRES    WAVE
                       AIR SEA DIR/SP/G            HT/PER
                 (UTC) (F)     (DEG/KT/KT) (MB)    (FT/S)
CHAMBERS ISLAND  1500   11     210/  2/  4 1026.1F
SISTER BAY       1504   18        CALM       N/A
ALGOMA LAKESHORE 1426           CALM  /  1   N/A
KEWAUNEE LAKESHO 1500    4     300/  2/  5 1025.1F
SHEBOYGAN LAKESH 1600   16     190/  3/  5 1025.9F
PORT WASHINGTON  1600   23     170/ 22     1025.1F
MILWAUKEE LAKESH 1510   20     150/ 22/ 25   N/A
KENOSHA   LAKESH 1600   18     160/ 24/ 29 1025.1R
$$

TC  - TEMPERATURE IN CELSIUS
VSB - VISIBILITY IN STATUTE MILES
WCI - WIND CHILL INDEX
HX  - HEAT INDEX





USA.gov is the U.S. government's official web portal to all federal, state and local government web resources and services.